Hourly Data Report for October 10, 2013

All times are specified in Local Standard Time (LST). Add 1 hour to adjust for Daylight Saving Time where and when it is observed.

TORONTO INTL A
ONTARIO

43°40'36.000" N
79°37'50.000" W
173.40 m
6158731
71624
YYZ

Download Data

Hourly Data (October 2013)
Hourly Data Report for October 10, 2013
Temp Definition
°C
Dew Point Temp Definition
°C
Rel Hum Definition
%
Wind Dir Definition
10's deg

Wind Spd Definition
km/h
Visibility Definition
km
Stn Press Definition
kPa
Hmdx Definition


Wind Chill Definition


Weather Definition


TIME
00:00 Legend Double Dagger 10.0 7.8 86 36 9 24.1 100.41     LegendNANA
01:00 Legend Double Dagger 9.6 7.6 87 35 6 24.1 100.39     Mainly Clear
02:00 Legend Double Dagger 8.4 6.9 90 33 8 24.1 100.37     LegendNANA
03:00 Legend Double Dagger 9.1 7.4 89 34 6 24.1 100.36     LegendNANA
04:00 Legend Double Dagger 8.5 7.3 92 33 6 19.3 100.38     Mainly Clear
05:00 Legend Double Dagger 8.6 7.7 94 34 9 16.1 100.40     LegendNANA
06:00 Legend Double Dagger 8.5 7.3 92 33 9 24.1 100.43     LegendNANA
07:00 Legend Double Dagger 9.1 8.0 93 35 7 24.1 100.43     Mostly Cloudy
08:00 Legend Double Dagger 11.1 8.9 86 34 4 24.1 100.42     LegendNANA
09:00 Legend Double Dagger 13.1 10.1 82 1 5 24.1 100.44     LegendNANA
10:00 Legend Double Dagger 15.6 11.2 75 33 6 24.1 100.40     Mainly Clear
11:00 Legend Double Dagger 18.0 10.7 62 3 8 24.1 100.36     LegendNANA
12:00 Legend Double Dagger 19.4 9.7 53 7 9 24.1 100.30     LegendNANA
13:00 Legend Double Dagger 19.4 10.0 54 15 13 24.1 100.26     Mainly Clear
14:00 Legend Double Dagger 18.8 9.9 56 13 15 24.1 100.22     LegendNANA
15:00 Legend Double Dagger 18.6 8.4 51 9 14 24.1 100.19     LegendNANA
16:00 Legend Double Dagger 18.0 6.0 45 11 11 24.1 100.17     Mostly Cloudy
17:00 Legend Double Dagger 16.7 5.7 48 10 12 24.1 100.17     LegendNANA
18:00 Legend Double Dagger 14.9 8.0 63 9 9 24.1 100.15     LegendNANA
19:00 Legend Double Dagger 13.7 7.7 67 10 10 24.1 100.13     Mainly Clear
20:00 Legend Double Dagger 13.1 6.7 65 6 7 24.1 100.11     LegendNANA
21:00 Legend Double Dagger 12.6 8.1 74 5 8 24.1 100.13     LegendNANA
22:00 Legend Double Dagger 11.9 6.9 71 3 9 24.1 100.11     Mainly Clear
23:00 Legend Double Dagger 10.4 5.4 71 34 5 24.1 100.08     LegendNANA

Notes on Data Quality.

Legend

  • E = Estimated
  • M = Missing
  • NA = Not Available
  • ‡ = Partner data that is not subject to review by the National Climate Archives
Date modified: